Location: Unspecified
(33.5760°N, 0.0000°E)
Time: 06:08:47
(UTC+00:00)

SR - All Passes

Search period start: 04 April 2026 00:00
Search period end: 14 April 2026 00:00
Orbit: 571 x 850 km, 66.7° (Epoch: 29 March)

Date Brightness Start Highest point End Pass type
(mag) Time Alt. Az. Time Alt. Az. Time Alt. Az.
4 Apr - 02:26:10 10° NNW 02:31:44 70° ENE 02:37:27 10° SSE visible
4 Apr - 04:10:05 10° WNW 04:12:52 14° WSW 04:15:40 10° SW night (unlit)
4 Apr - 16:49:30 10° SSW 16:53:48 79° WNW 16:58:27 10° NNE daylight
5 Apr - 01:31:36 10° N 01:36:31 32° ENE 01:41:34 10° ESE visible
5 Apr - 03:13:11 10° NW 03:18:10 33° WSW 03:23:15 10° S night (unlit)
5 Apr - 15:55:00 10° S 15:58:55 35° ESE 16:03:06 10° NE daylight
5 Apr - 17:37:31 10° W 17:40:42 19° NW 17:44:03 10° N daylight
6 Apr - 00:37:53 10° NNE 00:41:03 15° NE 00:44:16 10° E visible
6 Apr - 02:17:40 10° NNW 02:23:16 78° WSW 02:29:01 10° SSE visible
6 Apr - 15:02:22 10° SE 15:04:18 13° ESE 15:06:15 10° ENE daylight
6 Apr - 16:41:09 10° SW 16:45:21 46° WNW 16:49:52 10° NNE daylight
7 Apr - 01:22:47 10° NNW 01:28:11 47° ENE 01:33:41 10° SE visible
7 Apr - 03:05:22 10° WNW 03:09:33 22° WSW 03:13:47 10° SSW night (unlit)
7 Apr - 15:46:02 10° SSW 15:50:18 63° ESE 15:54:54 10° NNE daylight
7 Apr - 17:30:33 10° WNW 17:32:29 12° NW 17:34:28 10° NNW daylight
8 Apr - 00:28:32 10° N 00:32:50 22° NE 00:37:13 10° ESE visible
8 Apr - 02:09:19 10° NW 02:14:45 50° WSW 02:20:16 10° S night (unlit)
8 Apr - 14:52:12 10° SSE 14:55:32 22° ESE 14:59:03 10° ENE daylight
8 Apr - 16:33:07 10° WSW 16:36:57 29° NW 16:41:03 10° N daylight
8 Apr - 23:36:14 10° NE 23:37:12 10° NE 23:38:09 10° ENE visible
9 Apr - 01:14:08 10° NNW 01:19:45 72° ENE 01:25:29 10° SSE visible
9 Apr - 02:58:13 10° WNW 03:00:51 13° WSW 03:03:31 10° SW night (unlit)
9 Apr - 15:37:23 10° SSW 15:41:44 76° WNW 15:46:27 10° NNE daylight
10 Apr - 00:19:31 10° N 00:24:31 33° ENE 00:29:38 10° ESE visible
10 Apr - 02:01:11 10° NW 02:06:09 32° WSW 02:11:11 10° S night (unlit)
10 Apr - 14:42:50 10° S 14:46:50 37° ESE 14:51:06 10° NE daylight
10 Apr - 16:25:28 10° W 16:28:38 19° NW 16:31:59 10° N daylight
10 Apr - 23:25:44 10° NNE 23:29:01 16° NE 23:32:23 10° E visible
11 Apr - 01:05:37 10° NNW 01:11:15 76° WSW 01:16:59 10° SSE visible
11 Apr - 13:50:03 10° SE 13:52:11 13° ESE 13:54:22 10° ENE daylight
11 Apr - 15:29:02 10° SW 15:33:15 45° WNW 15:37:48 10° NNE daylight
12 Apr - 00:10:42 10° NNW 00:16:07 49° ENE 00:21:40 10° SE visible
12 Apr - 01:53:21 10° WNW 01:57:29 21° WSW 02:01:39 10° SSW night (unlit)
12 Apr - 14:33:52 10° SSW 14:38:10 65° ESE 14:42:50 10° NNE daylight
12 Apr - 16:18:29 10° WNW 16:20:23 12° NW 16:22:21 10° NNW daylight
12 Apr - 23:16:23 10° N 23:20:46 23° NE 23:25:13 10° ESE visible
13 Apr - 00:57:15 10° NW 01:02:41 49° WSW 01:08:11 10° S visible
13 Apr - 13:39:56 10° SSE 13:43:23 23° ESE 13:47:01 10° NE daylight
13 Apr - 15:20:59 10° WSW 15:24:50 28° NW 15:28:57 10° N daylight
13 Apr - 22:23:45 10° NNE 22:25:07 11° NE 22:26:29 10° ENE visible
